Year,Month,Day,Hour,Minute,Value (Times are PST for temperature in C)
2006,08,16,00,00,13.20
2006,08,16,00,01,13.20
2006,08,16,00,02,13.20
2006,08,16,00,03,13.20
2006,08,16,00,04,13.20
2006,08,16,00,05,13.20
2006,08,16,00,06,13.20
2006,08,16,00,07,13.20
2006,08,16,00,08,13.20
2006,08,16,00,09,13.20
2006,08,16,00,10,13.20
2006,08,16,00,11,13.20
2006,08,16,00,12,13.20
2006,08,16,00,13,13.20
2006,08,16,00,14,13.20
2006,08,16,00,15,13.10
2006,08,16,00,16,13.10
2006,08,16,00,17,13.10
2006,08,16,00,18,13.10
2006,08,16,00,19,13.10
2006,08,16,00,20,13.10
2006,08,16,00,21,13.10
2006,08,16,00,22,13.10
2006,08,16,00,23,13.10
2006,08,16,00,24,13.10
2006,08,16,00,25,13.20
2006,08,16,00,26,13.20
2006,08,16,00,27,13.20
2006,08,16,00,28,13.20
2006,08,16,00,29,13.20
2006,08,16,00,30,13.20
2006,08,16,00,31,13.20
2006,08,16,00,32,13.20
2006,08,16,00,33,13.20
2006,08,16,00,34,13.20
2006,08,16,00,35,13.20
2006,08,16,00,36,13.20
2006,08,16,00,37,13.20
2006,08,16,00,38,13.20
2006,08,16,00,39,13.20
2006,08,16,00,40,13.20
2006,08,16,00,41,13.30
2006,08,16,00,42,13.30
2006,08,16,00,43,13.30
2006,08,16,00,44,13.20
2006,08,16,00,45,13.20
2006,08,16,00,46,13.20
2006,08,16,00,47,13.20
2006,08,16,00,48,13.20
2006,08,16,00,49,13.20
2006,08,16,00,50,13.10
2006,08,16,00,51,13.10
2006,08,16,00,52,13.10
2006,08,16,00,53,13.00
2006,08,16,00,54,13.00
2006,08,16,00,55,13.00
2006,08,16,00,56,13.00
2006,08,16,00,57,13.00
2006,08,16,00,58,12.90
2006,08,16,00,59,12.90
2006,08,16,01,00,12.90
2006,08,16,01,01,12.90
2006,08,16,01,02,12.90
2006,08,16,01,03,12.80
2006,08,16,01,04,12.80
2006,08,16,01,05,12.80
2006,08,16,01,06,12.80
2006,08,16,01,07,12.80
2006,08,16,01,08,12.80
2006,08,16,01,09,12.80
2006,08,16,01,10,12.80
2006,08,16,01,11,12.80
2006,08,16,01,12,12.90
2006,08,16,01,13,12.90
2006,08,16,01,14,12.90
2006,08,16,01,15,13.00
2006,08,16,01,16,13.00
2006,08,16,01,17,13.10
2006,08,16,01,18,13.10
2006,08,16,01,19,13.10
2006,08,16,01,20,13.10
2006,08,16,01,21,13.10
2006,08,16,01,22,13.10
2006,08,16,01,23,13.10
2006,08,16,01,24,13.10
2006,08,16,01,25,13.10
2006,08,16,01,26,13.10
2006,08,16,01,27,13.10
2006,08,16,01,28,13.10
2006,08,16,01,29,13.10
2006,08,16,01,30,13.10
2006,08,16,01,31,13.10
2006,08,16,01,32,13.10
2006,08,16,01,33,13.00
2006,08,16,01,34,13.00
2006,08,16,01,35,13.00
2006,08,16,01,36,13.00
2006,08,16,01,37,13.00
2006,08,16,01,38,13.00
2006,08,16,01,39,13.00
2006,08,16,01,40,13.00
2006,08,16,01,41,12.90
2006,08,16,01,42,12.90
2006,08,16,01,43,12.90
2006,08,16,01,44,12.80
2006,08,16,01,45,12.80
2006,08,16,01,46,12.80
2006,08,16,01,47,12.80
2006,08,16,01,48,12.80
2006,08,16,01,49,12.80
2006,08,16,01,50,12.80
2006,08,16,01,51,12.80
2006,08,16,01,52,12.80
2006,08,16,01,53,12.80
2006,08,16,01,54,12.80
2006,08,16,01,55,12.80
2006,08,16,01,56,12.80
2006,08,16,01,57,12.80
2006,08,16,01,58,12.80
2006,08,16,01,59,12.70
2006,08,16,02,00,12.70
2006,08,16,02,01,12.70
2006,08,16,02,02,12.70
2006,08,16,02,03,12.70
2006,08,16,02,04,12.70
2006,08,16,02,05,12.70
2006,08,16,02,06,12.70
2006,08,16,02,07,12.70
2006,08,16,02,08,12.60
2006,08,16,02,09,12.60
2006,08,16,02,10,12.60
2006,08,16,02,11,12.60
2006,08,16,02,12,12.60
2006,08,16,02,13,12.60
2006,08,16,02,14,12.60
2006,08,16,02,15,12.60
2006,08,16,02,16,12.60
2006,08,16,02,17,12.60
2006,08,16,02,18,12.50
2006,08,16,02,19,12.50
2006,08,16,02,20,12.50
2006,08,16,02,21,12.50
2006,08,16,02,22,12.50
2006,08,16,02,23,12.50
2006,08,16,02,24,12.40
2006,08,16,02,25,12.40
2006,08,16,02,26,12.40
2006,08,16,02,27,12.30
2006,08,16,02,28,12.30
2006,08,16,02,29,12.30
2006,08,16,02,30,12.30
2006,08,16,02,31,12.30
2006,08,16,02,32,12.30
2006,08,16,02,33,12.30
2006,08,16,02,34,12.30
2006,08,16,02,35,12.30
2006,08,16,02,36,12.30
2006,08,16,02,37,12.30
2006,08,16,02,38,12.30
2006,08,16,02,39,12.30
2006,08,16,02,40,12.30
2006,08,16,02,41,12.30
2006,08,16,02,42,12.30
2006,08,16,02,43,12.30
2006,08,16,02,44,12.30
2006,08,16,02,45,12.20
2006,08,16,02,46,12.20
2006,08,16,02,47,12.20
2006,08,16,02,48,12.20
2006,08,16,02,49,12.20
2006,08,16,02,50,12.20
2006,08,16,02,51,12.30
2006,08,16,02,52,12.30
2006,08,16,02,53,12.30
2006,08,16,02,54,12.30
2006,08,16,02,55,12.30
2006,08,16,02,56,12.30
2006,08,16,02,57,12.30
2006,08,16,02,58,12.30
2006,08,16,02,59,12.30
2006,08,16,03,00,12.30
2006,08,16,03,01,12.30
2006,08,16,03,02,12.30
2006,08,16,03,03,12.40
2006,08,16,03,04,12.40
2006,08,16,03,05,12.40
2006,08,16,03,06,12.50
2006,08,16,03,07,12.50
2006,08,16,03,08,12.50
2006,08,16,03,09,12.60
2006,08,16,03,10,12.60
2006,08,16,03,11,12.60
2006,08,16,03,12,12.60
2006,08,16,03,13,12.60
2006,08,16,03,14,12.60
2006,08,16,03,15,12.60
2006,08,16,03,16,12.50
2006,08,16,03,17,12.50
2006,08,16,03,18,12.40
2006,08,16,03,19,12.40
2006,08,16,03,20,12.40
2006,08,16,03,21,12.30
2006,08,16,03,22,12.30
2006,08,16,03,23,12.30
2006,08,16,03,24,12.30
2006,08,16,03,25,12.30
2006,08,16,03,26,12.30
2006,08,16,03,27,12.30
2006,08,16,03,28,12.20
2006,08,16,03,29,12.20
2006,08,16,03,30,12.20
2006,08,16,03,31,12.20
2006,08,16,03,32,12.20
2006,08,16,03,33,12.20
2006,08,16,03,34,12.20
2006,08,16,03,35,12.20
2006,08,16,03,36,12.20
2006,08,16,03,37,12.20
2006,08,16,03,38,12.20
2006,08,16,03,39,12.20
2006,08,16,03,40,12.20
2006,08,16,03,41,12.20
2006,08,16,03,42,12.20
2006,08,16,03,43,12.20
2006,08,16,03,44,12.20
2006,08,16,03,45,12.20
2006,08,16,03,46,12.20
2006,08,16,03,47,12.20
2006,08,16,03,48,12.10
2006,08,16,03,49,12.10
2006,08,16,03,50,12.10
2006,08,16,03,51,12.10
2006,08,16,03,52,12.10
2006,08,16,03,53,12.00
2006,08,16,03,54,12.00
2006,08,16,03,55,12.00
2006,08,16,03,56,12.00
2006,08,16,03,57,12.00
2006,08,16,03,58,12.00
2006,08,16,03,59,11.90
2006,08,16,04,00,11.90
2006,08,16,04,01,11.90
2006,08,16,04,02,11.90
2006,08,16,04,03,11.90
2006,08,16,04,04,11.90
2006,08,16,04,05,11.90
2006,08,16,04,06,11.90
2006,08,16,04,07,11.90
2006,08,16,04,08,11.90
2006,08,16,04,09,11.90
2006,08,16,04,10,11.90
2006,08,16,04,11,11.90
2006,08,16,04,12,11.90
2006,08,16,04,13,11.90
2006,08,16,04,14,11.90
2006,08,16,04,15,11.90
2006,08,16,04,16,11.90
2006,08,16,04,17,12.00
2006,08,16,04,18,12.00
2006,08,16,04,19,12.00
2006,08,16,04,20,12.00
2006,08,16,04,21,11.90
2006,08,16,04,22,11.90
2006,08,16,04,23,11.90
2006,08,16,04,24,12.00
2006,08,16,04,25,12.00
2006,08,16,04,26,12.00
2006,08,16,04,27,12.00
2006,08,16,04,28,12.10
2006,08,16,04,29,12.10
2006,08,16,04,30,12.10
2006,08,16,04,31,12.10
2006,08,16,04,32,12.20
2006,08,16,04,33,12.20
2006,08,16,04,34,12.20
2006,08,16,04,35,12.20
2006,08,16,04,36,12.20
2006,08,16,04,37,12.20
2006,08,16,04,38,12.20
2006,08,16,04,39,12.20
2006,08,16,04,40,12.20
2006,08,16,04,41,12.10
2006,08,16,04,42,12.10
2006,08,16,04,43,12.10
2006,08,16,04,44,12.10
2006,08,16,04,45,12.10
2006,08,16,04,46,12.10
2006,08,16,04,47,12.10
2006,08,16,04,48,12.00
2006,08,16,04,49,12.00
2006,08,16,04,50,12.00
2006,08,16,04,51,12.00
2006,08,16,04,52,12.00
2006,08,16,04,53,12.00
2006,08,16,04,54,12.00
2006,08,16,04,55,12.00
2006,08,16,04,56,11.90
2006,08,16,04,57,11.90
2006,08,16,04,58,11.90
2006,08,16,04,59,11.90
2006,08,16,05,00,11.80
2006,08,16,05,01,11.80
2006,08,16,05,02,11.80
2006,08,16,05,03,11.80
2006,08,16,05,04,11.80
2006,08,16,05,05,11.80
2006,08,16,05,06,11.80
2006,08,16,05,07,11.70
2006,08,16,05,08,11.70
2006,08,16,05,09,11.70
2006,08,16,05,10,11.60
2006,08,16,05,11,11.60
2006,08,16,05,12,11.60
2006,08,16,05,13,11.60
2006,08,16,05,14,11.60
2006,08,16,05,15,11.60
2006,08,16,05,16,11.60
2006,08,16,05,17,11.50
2006,08,16,05,18,11.40
2006,08,16,05,19,11.40
2006,08,16,05,20,11.40
2006,08,16,05,21,11.40
2006,08,16,05,22,11.40
2006,08,16,05,23,11.40
2006,08,16,05,24,11.40
2006,08,16,05,25,11.40
2006,08,16,05,26,11.40
2006,08,16,05,27,11.40
2006,08,16,05,28,11.40
2006,08,16,05,29,11.40
2006,08,16,05,30,11.40
2006,08,16,05,31,11.40
2006,08,16,05,32,11.40
2006,08,16,05,33,11.30
2006,08,16,05,34,11.30
2006,08,16,05,35,11.30
2006,08,16,05,36,11.30
2006,08,16,05,37,11.30
2006,08,16,05,38,11.30
2006,08,16,05,39,11.30
2006,08,16,05,40,11.30
2006,08,16,05,41,11.30
2006,08,16,05,42,11.30
2006,08,16,05,43,11.30
2006,08,16,05,44,11.30
2006,08,16,05,45,11.30
2006,08,16,05,46,11.30
2006,08,16,05,47,11.20
2006,08,16,05,48,11.20
2006,08,16,05,49,11.20
2006,08,16,05,50,11.20
2006,08,16,05,51,11.20
2006,08,16,05,52,11.10
2006,08,16,05,53,11.10
2006,08,16,05,54,11.10
2006,08,16,05,55,11.10
2006,08,16,05,56,11.10
2006,08,16,05,57,11.10
2006,08,16,05,58,11.10
2006,08,16,05,59,11.10
2006,08,16,06,00,11.10
2006,08,16,06,01,11.10
2006,08,16,06,02,11.10
2006,08,16,06,03,11.10
2006,08,16,06,04,10.90
2006,08,16,06,05,10.90
2006,08,16,06,06,10.90
2006,08,16,06,07,10.90
2006,08,16,06,08,10.90
2006,08,16,06,09,10.90
2006,08,16,06,10,10.90
2006,08,16,06,11,10.90
2006,08,16,06,12,10.90
2006,08,16,06,13,10.90
2006,08,16,06,14,10.90
2006,08,16,06,15,10.90
2006,08,16,06,16,11.00
2006,08,16,06,17,11.10
2006,08,16,06,18,11.10
2006,08,16,06,19,11.10
2006,08,16,06,20,11.10
2006,08,16,06,21,11.10
2006,08,16,06,22,11.10
2006,08,16,06,23,11.10
2006,08,16,06,24,11.10
2006,08,16,06,25,11.10
2006,08,16,06,26,11.10
2006,08,16,06,27,11.10
2006,08,16,06,28,11.10
2006,08,16,06,29,11.10
2006,08,16,06,30,11.20
2006,08,16,06,31,11.20
2006,08,16,06,32,11.20
2006,08,16,06,33,11.20
2006,08,16,06,34,11.20
2006,08,16,06,35,11.20
2006,08,16,06,36,11.30
2006,08,16,06,37,11.30
2006,08,16,06,38,11.30
2006,08,16,06,39,11.30
2006,08,16,06,40,11.40
2006,08,16,06,41,11.40
2006,08,16,06,42,11.40
2006,08,16,06,43,11.40
2006,08,16,06,44,11.40
2006,08,16,06,45,11.50
2006,08,16,06,46,11.60
2006,08,16,06,47,11.60
2006,08,16,06,48,11.60
2006,08,16,06,49,11.70
2006,08,16,06,50,11.70
2006,08,16,06,51,11.70
2006,08,16,06,52,11.80
2006,08,16,06,53,11.80
2006,08,16,06,54,11.80
2006,08,16,06,55,11.90
2006,08,16,06,56,11.90
2006,08,16,06,57,12.00
2006,08,16,06,58,12.00
2006,08,16,06,59,12.10
2006,08,16,07,00,12.10
2006,08,16,07,01,12.20
2006,08,16,07,02,12.20
2006,08,16,07,03,12.30
2006,08,16,07,04,12.30
2006,08,16,07,05,12.30
2006,08,16,07,06,12.30
2006,08,16,07,07,12.30
2006,08,16,07,08,12.30
2006,08,16,07,09,12.30
2006,08,16,07,10,12.40
2006,08,16,07,11,12.40
2006,08,16,07,12,12.40
2006,08,16,07,13,12.50
2006,08,16,07,14,12.50
2006,08,16,07,15,12.60
2006,08,16,07,16,12.60
2006,08,16,07,17,12.70
2006,08,16,07,18,12.70
2006,08,16,07,19,12.70
2006,08,16,07,20,12.80
2006,08,16,07,21,12.80
2006,08,16,07,22,12.80
2006,08,16,07,23,12.80
2006,08,16,07,24,12.90
2006,08,16,07,25,12.90
2006,08,16,07,26,13.00
2006,08,16,07,27,13.10
2006,08,16,07,28,13.10
2006,08,16,07,29,13.20
2006,08,16,07,30,13.30
2006,08,16,07,31,13.30
2006,08,16,07,32,13.40
2006,08,16,07,33,13.50
2006,08,16,07,34,13.50
2006,08,16,07,35,13.60
2006,08,16,07,36,13.70
2006,08,16,07,37,13.70
2006,08,16,07,38,13.70
2006,08,16,07,39,13.70
2006,08,16,07,40,13.70
2006,08,16,07,41,13.70
2006,08,16,07,42,13.60
2006,08,16,07,43,13.60
2006,08,16,07,44,13.50
2006,08,16,07,45,13.40
2006,08,16,07,46,13.30
2006,08,16,07,47,13.20
2006,08,16,07,48,13.20
2006,08,16,07,49,13.10
2006,08,16,07,50,13.10
2006,08,16,07,51,13.10
2006,08,16,07,52,13.10
2006,08,16,07,53,13.10
2006,08,16,07,54,13.10
2006,08,16,07,55,13.10
2006,08,16,07,56,13.10
2006,08,16,07,57,13.20
2006,08,16,07,58,13.20
2006,08,16,07,59,13.30
2006,08,16,08,00,13.30
2006,08,16,08,01,13.30
2006,08,16,08,02,13.40
2006,08,16,08,03,13.50
2006,08,16,08,04,13.50
2006,08,16,08,05,13.60
2006,08,16,08,06,13.70
2006,08,16,08,07,13.70
2006,08,16,08,08,13.80
2006,08,16,08,09,13.90
2006,08,16,08,10,13.90
2006,08,16,08,11,14.00
2006,08,16,08,12,14.10
2006,08,16,08,13,14.20
2006,08,16,08,14,14.20
2006,08,16,08,15,14.20
2006,08,16,08,16,14.20
2006,08,16,08,17,14.30
2006,08,16,08,18,14.30
2006,08,16,08,19,14.30
2006,08,16,08,20,14.30
2006,08,16,08,21,14.30
2006,08,16,08,22,14.30
2006,08,16,08,23,14.30
2006,08,16,08,24,14.30
2006,08,16,08,25,14.30
2006,08,16,08,26,14.30
2006,08,16,08,27,14.30
2006,08,16,08,28,14.30
2006,08,16,08,29,14.30
2006,08,16,08,30,14.40
2006,08,16,08,31,14.40
2006,08,16,08,32,14.40
2006,08,16,08,33,14.40
2006,08,16,08,34,14.30
2006,08,16,08,35,14.30
2006,08,16,08,36,14.20
2006,08,16,08,37,14.20
2006,08,16,08,38,14.20
2006,08,16,08,39,14.20
2006,08,16,08,40,14.20
2006,08,16,08,41,14.20
2006,08,16,08,42,14.20
2006,08,16,08,43,14.20
2006,08,16,08,44,14.20
2006,08,16,08,45,14.30
2006,08,16,08,46,14.40
2006,08,16,08,47,14.40
2006,08,16,08,48,14.50
2006,08,16,08,49,14.60
2006,08,16,08,50,14.60
2006,08,16,08,51,14.60
2006,08,16,08,52,14.60
2006,08,16,08,53,14.60
2006,08,16,08,54,14.60
2006,08,16,08,55,14.60
2006,08,16,08,56,14.70
2006,08,16,08,57,14.70
2006,08,16,08,58,14.80
2006,08,16,08,59,14.80
2006,08,16,09,00,14.80
2006,08,16,09,01,14.80
2006,08,16,09,02,14.90
2006,08,16,09,03,14.90
2006,08,16,09,04,15.00
2006,08,16,09,05,15.10
2006,08,16,09,06,15.20
2006,08,16,09,07,15.20
2006,08,16,09,08,15.20
2006,08,16,09,09,15.30
2006,08,16,09,10,15.20
2006,08,16,09,11,15.10
2006,08,16,09,12,15.10
2006,08,16,09,13,15.00
2006,08,16,09,14,14.90
2006,08,16,09,15,14.80
2006,08,16,09,16,14.80
2006,08,16,09,17,14.80
2006,08,16,09,18,14.70
2006,08,16,09,19,14.60
2006,08,16,09,20,14.50
2006,08,16,09,21,14.50
2006,08,16,09,22,14.40
2006,08,16,09,23,14.30
2006,08,16,09,24,14.20
2006,08,16,09,25,14.20
2006,08,16,09,26,14.10
2006,08,16,09,27,14.00
2006,08,16,09,28,14.00
2006,08,16,09,29,13.90
2006,08,16,09,30,13.90
2006,08,16,09,31,13.80
2006,08,16,09,32,13.80
2006,08,16,09,33,13.80
2006,08,16,09,34,13.80
2006,08,16,09,35,13.70
2006,08,16,09,36,13.70
2006,08,16,09,37,13.70
2006,08,16,09,38,13.60
2006,08,16,09,39,13.60
2006,08,16,09,40,13.50
2006,08,16,09,41,13.50
2006,08,16,09,42,13.40
2006,08,16,09,43,13.40
2006,08,16,09,44,13.30
2006,08,16,09,45,13.30
2006,08,16,09,46,13.20
2006,08,16,09,47,13.20
2006,08,16,09,48,13.10
2006,08,16,09,49,13.10
2006,08,16,09,50,13.10
2006,08,16,09,51,13.10
2006,08,16,09,52,13.10
2006,08,16,09,53,13.10
2006,08,16,09,54,13.10
2006,08,16,09,55,13.10
2006,08,16,09,56,13.10
2006,08,16,09,57,13.10
2006,08,16,09,58,13.20
2006,08,16,09,59,13.20
2006,08,16,10,00,13.20
2006,08,16,10,01,13.20
2006,08,16,10,02,13.20
2006,08,16,10,03,13.20
2006,08,16,10,04,13.20
2006,08,16,10,05,13.20
2006,08,16,10,06,13.30
2006,08,16,10,07,13.30
2006,08,16,10,08,13.30
2006,08,16,10,09,13.30
2006,08,16,10,10,13.30
2006,08,16,10,11,13.30
2006,08,16,10,12,13.30
2006,08,16,10,13,13.30
2006,08,16,10,14,13.30
2006,08,16,10,15,13.30
2006,08,16,10,16,13.30
2006,08,16,10,17,13.30
2006,08,16,10,18,13.40
2006,08,16,10,19,13.50
2006,08,16,10,20,13.60
2006,08,16,10,21,13.70
2006,08,16,10,22,13.70
2006,08,16,10,23,13.80
2006,08,16,10,24,13.90
2006,08,16,10,25,13.90
2006,08,16,10,26,14.10
2006,08,16,10,27,14.10
2006,08,16,10,28,14.20
2006,08,16,10,29,14.20
2006,08,16,10,30,14.30
2006,08,16,10,31,14.40
2006,08,16,10,32,14.50
2006,08,16,10,33,14.50
2006,08,16,10,34,14.60
2006,08,16,10,35,14.70
2006,08,16,10,36,14.80
2006,08,16,10,37,14.80
2006,08,16,10,38,14.90
2006,08,16,10,39,15.00
2006,08,16,10,40,15.00
2006,08,16,10,41,15.10
2006,08,16,10,42,15.10
2006,08,16,10,43,15.20
2006,08,16,10,44,15.20
2006,08,16,10,45,15.30
2006,08,16,10,46,15.30
2006,08,16,10,47,15.30
2006,08,16,10,48,15.30
2006,08,16,10,49,15.30
2006,08,16,10,50,15.30
2006,08,16,10,51,15.30
2006,08,16,10,52,15.40
2006,08,16,10,53,15.40
2006,08,16,10,54,15.50
2006,08,16,10,55,15.50
2006,08,16,10,56,15.50
2006,08,16,10,57,15.60
2006,08,16,10,58,15.60
2006,08,16,10,59,15.70
2006,08,16,11,00,15.80
2006,08,16,11,01,15.80
2006,08,16,11,02,15.80
2006,08,16,11,03,15.80
2006,08,16,11,04,15.80
2006,08,16,11,05,15.70
2006,08,16,11,06,15.70
2006,08,16,11,07,15.60
2006,08,16,11,08,15.60
2006,08,16,11,09,15.60
2006,08,16,11,10,15.60
2006,08,16,11,11,15.50
2006,08,16,11,12,15.50
2006,08,16,11,13,15.50
2006,08,16,11,14,15.60
2006,08,16,11,15,15.60
2006,08,16,11,16,15.70
2006,08,16,11,17,15.80
2006,08,16,11,18,15.80
2006,08,16,11,19,15.90
2006,08,16,11,20,16.00
2006,08,16,11,21,16.10
2006,08,16,11,22,16.10
2006,08,16,11,23,16.20
2006,08,16,11,24,16.20
2006,08,16,11,25,16.30
2006,08,16,11,26,16.30
2006,08,16,11,27,16.40
2006,08,16,11,28,16.50
2006,08,16,11,29,16.60
2006,08,16,11,30,16.70
2006,08,16,11,31,16.70
2006,08,16,11,32,16.70
2006,08,16,11,33,16.70
2006,08,16,11,34,16.70
2006,08,16,11,35,16.70
2006,08,16,11,36,16.70
2006,08,16,11,37,16.70
2006,08,16,11,38,16.70
2006,08,16,11,39,16.70
2006,08,16,11,40,16.90
2006,08,16,11,41,17.00
2006,08,16,11,42,17.00
2006,08,16,11,43,17.00
2006,08,16,11,44,17.10
2006,08,16,11,45,17.10
2006,08,16,11,46,17.20
2006,08,16,11,47,17.20
2006,08,16,11,48,17.20
2006,08,16,11,49,17.20
2006,08,16,11,50,17.20
2006,08,16,11,51,17.30
2006,08,16,11,52,17.30
2006,08,16,11,53,17.50
2006,08,16,11,54,17.50
2006,08,16,11,55,17.50
2006,08,16,11,56,17.50
2006,08,16,11,57,17.50
2006,08,16,11,58,17.50
2006,08,16,11,59,17.50
2006,08,16,12,00,17.60
2006,08,16,12,01,17.60
2006,08,16,12,02,17.50
2006,08,16,12,03,17.50
2006,08,16,12,04,17.50
2006,08,16,12,05,17.50
2006,08,16,12,06,17.50
2006,08,16,12,07,17.60
2006,08,16,12,08,17.50
2006,08,16,12,09,17.50
2006,08,16,12,10,17.50
2006,08,16,12,11,17.60
2006,08,16,12,12,17.50
2006,08,16,12,13,17.50
2006,08,16,12,14,17.60
2006,08,16,12,15,17.70
2006,08,16,12,16,17.80
2006,08,16,12,17,17.80
2006,08,16,12,18,17.90
2006,08,16,12,19,17.80
2006,08,16,12,20,17.70
2006,08,16,12,21,17.70
2006,08,16,12,22,17.60
2006,08,16,12,23,17.60
2006,08,16,12,24,17.70
2006,08,16,12,25,17.70
2006,08,16,12,26,17.80
2006,08,16,12,27,17.90
2006,08,16,12,28,17.90
2006,08,16,12,29,18.00
2006,08,16,12,30,17.90
2006,08,16,12,31,18.00
2006,08,16,12,32,18.10
2006,08,16,12,33,18.10
2006,08,16,12,34,18.00
2006,08,16,12,35,17.90
2006,08,16,12,36,17.90
2006,08,16,12,37,18.00
2006,08,16,12,38,18.10
2006,08,16,12,39,18.10
2006,08,16,12,40,18.10
2006,08,16,12,41,18.20
2006,08,16,12,42,18.20
2006,08,16,12,43,18.20
2006,08,16,12,44,18.20
2006,08,16,12,45,18.30
2006,08,16,12,46,18.30
2006,08,16,12,47,18.20
2006,08,16,12,48,18.20
2006,08,16,12,49,18.20
2006,08,16,12,50,18.20
2006,08,16,12,51,18.10
2006,08,16,12,52,18.00
2006,08,16,12,53,17.80
2006,08,16,12,54,17.60
2006,08,16,12,55,17.30
2006,08,16,12,56,17.30
2006,08,16,12,57,17.30
2006,08,16,12,58,17.30
2006,08,16,12,59,17.30
2006,08,16,13,00,17.30
2006,08,16,13,01,17.20
2006,08,16,13,02,17.20
2006,08,16,13,03,17.20
2006,08,16,13,04,17.20
2006,08,16,13,05,17.30
2006,08,16,13,06,17.20
2006,08,16,13,07,17.20
2006,08,16,13,08,17.20
2006,08,16,13,09,17.40
2006,08,16,13,10,17.50
2006,08,16,13,11,17.70
2006,08,16,13,12,17.80
2006,08,16,13,13,17.90
2006,08,16,13,14,17.90
2006,08,16,13,15,17.90
2006,08,16,13,16,18.00
2006,08,16,13,17,18.10
2006,08,16,13,18,18.20
2006,08,16,13,19,18.20
2006,08,16,13,20,18.20
2006,08,16,13,21,18.20
2006,08,16,13,22,18.10
2006,08,16,13,23,18.00
2006,08,16,13,24,17.80
2006,08,16,13,25,17.80
2006,08,16,13,26,17.90
2006,08,16,13,27,17.90
2006,08,16,13,28,17.90
2006,08,16,13,29,17.90
2006,08,16,13,30,17.90
2006,08,16,13,31,17.80
2006,08,16,13,32,17.60
2006,08,16,13,33,17.50
2006,08,16,13,34,17.60
2006,08,16,13,35,17.60
2006,08,16,13,36,17.60
2006,08,16,13,37,17.50
2006,08,16,13,38,17.50
2006,08,16,13,39,17.50
2006,08,16,13,40,17.60
2006,08,16,13,41,17.70
2006,08,16,13,42,17.80
2006,08,16,13,43,17.80
2006,08,16,13,44,17.80
2006,08,16,13,45,17.70
2006,08,16,13,46,17.60
2006,08,16,13,47,17.60
2006,08,16,13,48,17.70
2006,08,16,13,49,17.80
2006,08,16,13,50,17.90
2006,08,16,13,51,18.10
2006,08,16,13,52,18.20
2006,08,16,13,53,18.20
2006,08,16,13,54,18.20
2006,08,16,13,55,18.20
2006,08,16,13,56,18.30
2006,08,16,13,57,18.20
2006,08,16,13,58,18.10
2006,08,16,13,59,18.00
2006,08,16,14,00,17.90
2006,08,16,14,01,18.00
2006,08,16,14,02,18.10
2006,08,16,14,03,18.20
2006,08,16,14,04,18.20
2006,08,16,14,05,18.20
2006,08,16,14,06,18.00
2006,08,16,14,07,17.90
2006,08,16,14,08,17.90
2006,08,16,14,09,17.60
2006,08,16,14,10,17.50
2006,08,16,14,11,17.50
2006,08,16,14,12,17.60
2006,08,16,14,13,17.60
2006,08,16,14,14,17.60
2006,08,16,14,15,17.80
2006,08,16,14,16,17.80
2006,08,16,14,17,17.90
2006,08,16,14,18,18.10
2006,08,16,14,19,18.10
2006,08,16,14,20,18.10
2006,08,16,14,21,18.00
2006,08,16,14,22,17.80
2006,08,16,14,23,17.80
2006,08,16,14,24,17.80
2006,08,16,14,25,17.90
2006,08,16,14,26,17.90
2006,08,16,14,27,17.90
2006,08,16,14,28,17.90
2006,08,16,14,29,17.90
2006,08,16,14,30,17.90
2006,08,16,14,31,17.90
2006,08,16,14,32,17.70
2006,08,16,14,33,17.60
2006,08,16,14,34,17.70
2006,08,16,14,35,17.80
2006,08,16,14,36,17.80
2006,08,16,14,37,17.70
2006,08,16,14,38,17.60
2006,08,16,14,39,17.70
2006,08,16,14,40,17.70
2006,08,16,14,41,17.80
2006,08,16,14,42,17.90
2006,08,16,14,43,17.90
2006,08,16,14,44,18.10
2006,08,16,14,45,18.10
2006,08,16,14,46,17.90
2006,08,16,14,47,17.90
2006,08,16,14,48,17.90
2006,08,16,14,49,17.90
2006,08,16,14,50,17.90
2006,08,16,14,51,17.90
2006,08,16,14,52,17.90
2006,08,16,14,53,17.90
2006,08,16,14,54,17.90
2006,08,16,14,55,17.90
2006,08,16,14,56,17.90
2006,08,16,14,57,17.80
2006,08,16,14,58,17.70
2006,08,16,14,59,17.60
2006,08,16,15,00,17.70
2006,08,16,15,01,17.80
2006,08,16,15,02,17.70
2006,08,16,15,03,17.80
2006,08,16,15,04,17.90
2006,08,16,15,05,18.00
2006,08,16,15,06,18.00
2006,08,16,15,07,18.00
2006,08,16,15,08,17.90
2006,08,16,15,09,17.90
2006,08,16,15,10,17.80
2006,08,16,15,11,17.80
2006,08,16,15,12,17.90
2006,08,16,15,13,17.90
2006,08,16,15,14,17.90
2006,08,16,15,15,17.90
2006,08,16,15,16,17.90
2006,08,16,15,17,18.10
2006,08,16,15,18,18.10
2006,08,16,15,19,17.90
2006,08,16,15,20,17.90
2006,08,16,15,21,17.80
2006,08,16,15,22,17.70
2006,08,16,15,23,17.70
2006,08,16,15,24,17.70
2006,08,16,15,25,17.70
2006,08,16,15,26,17.70
2006,08,16,15,27,17.80
2006,08,16,15,28,17.90
2006,08,16,15,29,17.80
2006,08,16,15,30,17.70
2006,08,16,15,31,17.60
2006,08,16,15,32,17.80
2006,08,16,15,33,17.80
2006,08,16,15,34,17.80
2006,08,16,15,35,17.70
2006,08,16,15,36,17.50
2006,08,16,15,37,17.50
2006,08,16,15,38,17.50
2006,08,16,15,39,17.60
2006,08,16,15,40,17.70
2006,08,16,15,41,17.80
2006,08,16,15,42,17.90
2006,08,16,15,43,17.90
2006,08,16,15,44,18.10
2006,08,16,15,45,18.10
2006,08,16,15,46,18.20
2006,08,16,15,47,18.20
2006,08,16,15,48,18.20
2006,08,16,15,49,18.30
2006,08,16,15,50,18.30
2006,08,16,15,51,18.40
2006,08,16,15,52,18.40
2006,08,16,15,53,18.50
2006,08,16,15,54,18.50
2006,08,16,15,55,18.50
2006,08,16,15,56,18.30
2006,08,16,15,57,18.30
2006,08,16,15,58,18.30
2006,08,16,15,59,18.30
2006,08,16,16,00,18.40
2006,08,16,16,01,18.50
2006,08,16,16,02,18.50
2006,08,16,16,03,18.40
2006,08,16,16,04,18.40
2006,08,16,16,05,18.30
2006,08,16,16,06,18.30
2006,08,16,16,07,18.20
2006,08,16,16,08,18.10
2006,08,16,16,09,18.10
2006,08,16,16,10,18.10
2006,08,16,16,11,18.20
2006,08,16,16,12,18.20
2006,08,16,16,13,18.30
2006,08,16,16,14,18.30
2006,08,16,16,15,18.40
2006,08,16,16,16,18.40
2006,08,16,16,17,18.50
2006,08,16,16,18,18.60
2006,08,16,16,19,18.70
2006,08,16,16,20,18.90
2006,08,16,16,21,18.90
2006,08,16,16,22,19.00
2006,08,16,16,23,19.10
2006,08,16,16,24,19.10
2006,08,16,16,25,19.10
2006,08,16,16,26,19.20
2006,08,16,16,27,19.10
2006,08,16,16,28,19.10
2006,08,16,16,29,18.90
2006,08,16,16,30,18.80
2006,08,16,16,31,18.70
2006,08,16,16,32,18.50
2006,08,16,16,33,18.30
2006,08,16,16,34,18.20
2006,08,16,16,35,18.20
2006,08,16,16,36,18.20
2006,08,16,16,37,18.20
2006,08,16,16,38,18.20
2006,08,16,16,39,18.20
2006,08,16,16,40,18.30
2006,08,16,16,41,18.40
2006,08,16,16,42,18.40
2006,08,16,16,43,18.50
2006,08,16,16,44,18.60
2006,08,16,16,45,18.60
2006,08,16,16,46,18.50
2006,08,16,16,47,18.50
2006,08,16,16,48,18.50
2006,08,16,16,49,18.40
2006,08,16,16,50,18.50
2006,08,16,16,51,18.50
2006,08,16,16,52,18.50
2006,08,16,16,53,18.50
2006,08,16,16,54,18.40
2006,08,16,16,55,18.40
2006,08,16,16,56,18.50
2006,08,16,16,57,18.70
2006,08,16,16,58,18.80
2006,08,16,16,59,18.90
2006,08,16,17,00,18.90
2006,08,16,17,01,19.00
2006,08,16,17,02,19.10
2006,08,16,17,03,19.00
2006,08,16,17,04,18.90
2006,08,16,17,05,19.00
2006,08,16,17,06,19.10
2006,08,16,17,07,19.10
2006,08,16,17,08,19.00
2006,08,16,17,09,18.90
2006,08,16,17,10,18.90
2006,08,16,17,11,18.80
2006,08,16,17,12,18.70
2006,08,16,17,13,18.60
2006,08,16,17,14,18.50
2006,08,16,17,15,18.50
2006,08,16,17,16,18.40
2006,08,16,17,17,18.30
2006,08,16,17,18,18.20
2006,08,16,17,19,18.20